TimePDT,TemperatureF,Dew PointF,Humidity,Sea Level PressureIn,VisibilityMPH,Wind Direction,Wind SpeedMPH,Gust SpeedMPH,PrecipitationIn,Events,Conditions,WindDirDegrees,DateUTC
12:53 AM,72.0,61.0,68,29.77,8.0,Calm,Calm,-,N/A,,Clear,0,2013-09-16 07:53:00
1:53 AM,72.0,60.1,66,29.77,9.0,Calm,Calm,-,N/A,,Clear,0,2013-09-16 08:53:00
2:53 AM,72.0,60.1,66,29.76,9.0,Calm,Calm,-,N/A,,Clear,0,2013-09-16 09:53:00
3:53 AM,73.0,60.1,64,29.77,10.0,Calm,Calm,-,N/A,,Clear,0,2013-09-16 10:53:00
4:53 AM,72.0,59.0,64,29.78,10.0,Calm,Calm,-,N/A,,Clear,0,2013-09-16 11:53:00
5:53 AM,72.0,59.0,64,29.80,10.0,Calm,Calm,-,N/A,,Clear,0,2013-09-16 12:53:00
6:53 AM,72.0,59.0,64,29.80,9.0,Calm,Calm,-,N/A,,Clear,0,2013-09-16 13:53:00
7:53 AM,75.9,61.0,60,29.80,8.0,Calm,Calm,-,N/A,,Clear,0,2013-09-16 14:53:00
8:53 AM,79.0,61.0,54,29.81,8.0,Calm,Calm,-,N/A,,Clear,0,2013-09-16 15:53:00
9:53 AM,82.9,61.0,47,29.81,8.0,Variable,3.5,-,N/A,,Clear,0,2013-09-16 16:53:00
10:53 AM,87.1,61.0,41,29.80,10.0,Calm,Calm,-,N/A,,Clear,0,2013-09-16 17:53:00
11:53 AM,90.0,62.1,39,29.79,9.0,WSW,8.1,-,N/A,,Clear,240,2013-09-16 18:53:00
12:53 PM,86.0,61.0,43,29.79,10.0,SW,6.9,-,N/A,,Clear,230,2013-09-16 19:53:00
1:53 PM,87.1,60.1,40,29.77,9.0,SW,8.1,16.1,N/A,,Clear,230,2013-09-16 20:53:00
2:53 PM,86.0,57.9,38,29.75,10.0,SW,9.2,-,N/A,,Clear,220,2013-09-16 21:53:00
3:53 PM,84.0,59.0,43,29.73,10.0,SW,6.9,-,N/A,,Clear,230,2013-09-16 22:53:00
4:53 PM,81.0,61.0,50,29.74,10.0,SW,8.1,-,N/A,,Clear,230,2013-09-16 23:53:00
5:53 PM,80.1,61.0,52,29.74,10.0,SSW,6.9,-,N/A,,Clear,210,2013-09-17 00:53:00
6:53 PM,75.9,60.1,58,29.75,10.0,SSW,6.9,-,N/A,,Clear,210,2013-09-17 01:53:00
7:53 PM,73.0,60.1,64,29.76,10.0,South,5.8,-,N/A,,Clear,190,2013-09-17 02:53:00
8:53 PM,72.0,60.1,66,29.78,10.0,SSW,6.9,-,N/A,,Clear,200,2013-09-17 03:53:00
9:53 PM,71.1,61.0,70,29.80,10.0,SSW,9.2,-,N/A,,Clear,210,2013-09-17 04:53:00
10:53 PM,70.0,61.0,73,29.81,10.0,SSW,5.8,-,N/A,,Clear,210,2013-09-17 05:53:00
11:38 PM,69.8,60.8,73,29.80,9.0,SW,3.5,-,N/A,,Partly Cloudy,220,2013-09-17 06:38:00
11:53 PM,69.1,61.0,75,29.81,8.0,Calm,Calm,-,N/A,,Partly Cloudy,0,2013-09-17 06:53:00